Preview of NWS' New Version of Forecast
This preview is not operational and should not be used for support decisions.

Regional Weather Roundup (RWR)

Issued by National Weather Service (NWS)

                            
000
ASUS44 KMEG 171000
RWRTN 
TENNESSEE HOURLY STATE WEATHER ROUNDUP
NATIONAL WEATHER SERVICE MEMPHIS TN
400 AM CST SUN FEB 17 2019

TNZ002-004-019-021-049-052-054-088>092-171100-
WEST TENNESSEE
  
CITY           SKY/WX    TMP DP  RH WIND       PRES   REMARKS
MEMPHIS INTL   CLOUDY    42  41  96 NW7       29.73R                  
NWS MEMPHIS      N/A     40 N/A N/A MISG        N/A                   
JACKSON        RAIN      39  38  96 CALM      29.73S FOG              
DYERSBURG      LGT RAIN  38  36  92 CALM      29.76S                  
$$

TNZ008-025-027-028-033-062-065-066-171100-
NORTH MIDDLE TENNESSEE
  
CITY           SKY/WX    TMP DP  RH WIND       PRES   REMARKS
NASHVILLE      LGT RAIN  41  38  89 NE6       29.75F FOG              
CLARKSVILLE    CLOUDY    39  36  89 SE5       29.74F                  
SMYRNA         LGT RAIN  40  39  97 NE6       29.77                   
CROSSVILLE     LGT RAIN  43  40  89 S9G23     29.78F                  
$$

TNZ061-075-076-078-094-096-097-171100-
SOUTH MIDDLE TENNESSEE
  
CITY           SKY/WX    TMP DP  RH WIND       PRES   REMARKS
$$

TNZ017-018-042-046-047-171100-
NORTHEAST TENNESSEE
  
CITY           SKY/WX    TMP DP  RH WIND       PRES   REMARKS
TRI CITIES     MOCLDY    40  37  89 CALM      29.86S                  
$$

TNZ012-013-036-069-073-074-171100-
CENTRAL EAST TENNESSEE
  
CITY           SKY/WX    TMP DP  RH WIND       PRES   REMARKS
KNOXVILLE      CLOUDY    42  40  92 N3        29.83F                  
OAK RIDGE      LGT RAIN  43  39  86 CALM      29.86R                  
$$

TNZ083-085-099-171100-
SOUTHEAST TENNESSEE
  
CITY           SKY/WX    TMP DP  RH WIND       PRES   REMARKS
CHATTANOOGA    CLOUDY    46  43  89 CALM      29.84F                  
$$

SKY/WX REPORTED AS FAIR MEANS FEW OR NO CLOUDS BELOW
12 THOUSAND FEET.